Regional Weather Roundup
Issued by NWS San Diego, CA

Home | Current Version | Previous Version | Text Only | Print | Product List | Glossary On
Versions: 1 2 3 4 5 6 7 8 9 10 11 12 13 14 15 16 17 18 19 20 21 22 23 24 25 26 27 28 29 30 31 32 33 34 35 36 37 38 39 40 41 42 43 44 45 46 47 48 49 50
000
ASUS46 KSGX 012210
RWRSGX

SAN DIEGO HOURLY WEATHER ROUNDUP
NATIONAL WEATHER SERVICE SAN DIEGO CA
200 PM PST SUN FEB 01 2015

NOTE: "FAIR" INDICATES FEW OR NO CLOUDS BELOW 12,000 FEET WITH NO
SIGNIFICANT WEATHER AND/OR OBSTRUCTIONS TO VISIBILITY.

CAZ042-043-060-061-PZZ750-775-012300-

GREATER SAN DIEGO AREA

CITY           SKY/WX    TMP DP  RH WIND       PRES   REMARKS
LINDBERGH FLD  MOSUNNY   70  50  49 NW8       30.06F
POINT LOMA       N/A     62  56  82 NW17        N/A
NATIONAL CITY    N/A     70  60  69 S5        30.06F
CHULA VISTA      N/A     68  59  72 W5        29.99F
IMPERIAL BEACH SUNNY     66  58  75 W13       30.06F
BROWN FIELD    SUNNY     69  51  52 W9        30.05F
MIRAMAR MCAS   MOSUNNY   72  49  44 NW12      30.05F
MONTGOMERY FLD SUNNY     72  48  42 NW13      30.05F

$$

NORTH SAN DIEGO COUNTY

CITY           SKY/WX    TMP DP  RH WIND       PRES   REMARKS
CAMP PENDLETON SUNNY     71  49  45 S9        30.04F
OCEANSIDE AP   SUNNY     68  51  54 W8        30.04F
OCEANSIDE HBR    N/A     64  58  82 SW1       30.08F
VISTA            N/A     70  52  53 W2        30.05F
CARLSBAD       SUNNY     66  47  50 W5        30.05F
DEL MAR          N/A     68  55  62 CALM      30.08F
LA JOLLA SCRIP   N/A     62  56  80 CALM      30.04F
FALLBROOK        N/A     73  51  46 S6        30.05F
ESCONDIDO        N/A     73  48  41 W10       30.07F
SAN MARCOS       N/A     72  47  40 CALM      30.05F
POWAY            N/A     74  49  41 W5        30.07F

$$

EAST SAN DIEGO COUNTY

CITY           SKY/WX    TMP DP  RH WIND       PRES   REMARKS
RAMONA         SUNNY     72  47  40 NW12      30.06F
SANTEE LAKES     N/A     75  50  41 W5        30.06F
LA MESA          N/A     73  45  37 W7        30.00F
JAMUL            N/A     72  50  45 W1        30.05F
DESCANSO N       N/A     68  26  20 CALM      30.01F
MT. LAGUNA OBS   N/A     49  21  32 E10       29.74S
CAMPO            N/A     67  30  25 E18       30.04F

$$

ORANGE COUNTY AND THE LOS ANGELES BASIN

CITY           SKY/WX    TMP DP  RH WIND       PRES   REMARKS
JOHN WAYNE AP  PTSUNNY   75  51  43 VRB6      30.05F
LAGUNA BEACH     N/A     67  60  78 CALM      30.01F
LAKE FOREST FR   N/A     76  43  31 W5        29.96F
SANTA ANA        N/A     80  49  33 CALM      30.00F
HUNTINGTON BCH   N/A     69  60  73 SW6       30.07F
LOS ALAMITOS   PTSUNNY   71  58  63 S7        30.04F
FULLERTON      SUNNY     76  44  32 SW6       30.03F
LONG BEACH     SUNNY     70  55  59 S7        30.05F
L.A. AP        PTSUNNY   67  52  58 W9        30.06F
L.A. DOWNTOWN  SUNNY     75  42  30 CALM      30.04F

$$

THE INLAND EMPIRE

CITY           SKY/WX    TMP DP  RH WIND       PRES   REMARKS
CORONA         SUNNY     76  38  25 W10       30.06F
CHINO          MOSUNNY   77  43  29 W9        30.06F
ONTARIO        PTSUNNY   75  37  25 W7        30.06F
SAN BERNARDINO MOSUNNY   73  32  21 W6        30.07F
RIVERSIDE AP   SUNNY     75  39  27 W6        30.05F
RIV CYN CREST    N/A     75  48  38 NW1         N/A
MORENO VALLEY    N/A     74  47  37 W5        29.27F
MARCH ARB      SUNNY     71  41  33 VRB5      30.07F
HORSETHIEF CYN   N/A     73  35  25 NW2       30.06F
PERRIS           N/A     73  42  32 NW5         N/A
MENIFEE          N/A     75  43  32 E3        30.15F
HEMET EAST       N/A     69  32  25 CALM      30.10F
FRENCH VALLEY  FAIR      73  34  23 N5        30.07F
TEMECULA         N/A     74  41  30 E7        30.00F

$$

SAN BERNARDINO AND RIVERSIDE COUNTY MOUNTAINS

CITY           SKY/WX    TMP DP  RH WIND       PRES   REMARKS
BIG BEAR AP    SUNNY     54   0  11 E6        30.23F
ANGELUS OAKS     N/A     58  33  39 CALM      30.08F
PINE COVE        N/A     54  35  48 NW1       30.16F

$$

SOUTHERN DESERT INCLUDING THE COACHELLA VALLEY

CITY           SKY/WX    TMP DP  RH WIND       PRES   REMARKS
PALM SPRINGS   SUNNY     80  25  13 SE6       30.05F
THOUSAND PALMS   N/A     81  33  18 SE1       30.03F
PALM DESERT      N/A     82  38  21 CALM      26.43S
THERMAL        SUNNY     80  33  18 SE6       30.02F
BLYTHE         SUNNY     73  38  27 N6        30.06F
IMPERIAL AP    SUNNY     76  36  23 CALM      30.04F
EL CENTRO NAS  SUNNY     78  32  18 VRB5      30.04F
YUMA AZ        SUNNY     74  43  32 NE6       30.05F
MEXICALI       SUNNY     75  34  22 NW6       30.05

$$

UPPER DESERT

CITY           SKY/WX    TMP DP  RH WIND       PRES   REMARKS
VICTORVILLE AP MOSUNNY   64  25  22 N6        30.15F
HESPERIA         N/A     64  35  34 CALM      30.28F
APPLE VALLEY     N/A     65  28  24 N2        30.14F
PALMDALE       SUNNY     65  34  31 CALM      30.14F
LANCASTER      MOSUNNY   66  29  24 CALM      30.14F
EDWARDS AFB    PTSUNNY   64  38  38 VRB1      30.12F
DAGGETT        MOSUNNY   68  25  19 VRB3      30.12F
29 PALMS N     SUNNY     67  32  27 CALM      30.17F
NEEDLES        SUNNY     72  26  18 NE12      30.08F

$$

REGIONAL REPORTS

CITY           SKY/WX    TMP DP  RH WIND       PRES   REMARKS
SANTA BARBARA  SUNNY     67  57  70 SE6       30.07F
SANDBERG       MOSUNNY   63  27  25 NE7       30.19F
MT. WILSON       N/A     61  34  36 SW5         N/A
LAS VEGAS NV   PTSUNNY   64  27  24 S5        30.10F
PHOENIX AZ     MOSUNNY   67  47  48 SW5       30.03F
TIJUANA        SUNNY     72  41  33 W12       30.08F

$$

OFFSHORE ISLANDS

CITY           SKY/WX    TMP DP  RH WIND       PRES   REMARKS
CATALINA ARPT  SUNNY     67  39  35 W8        30.10F
SAN NICOLAS IS MOSUNNY  N/A N/A N/A NW7       30.08F

$$

MARINE AND OFFSHORE BUOY REPORTS

STATION/POSITION SKY/WX   TEMP    WIND        PRES    SWELL
                          AIR SEA DIR/SP/G            HT/PER/DIR
                          (F)     (DEG/KT/KT) (MB)    (FT/S/D)
TANNER BANKS               62 62  320/ 10/ 10 1018.6F   7/290/13
S CLEMENTE BASIN           63 64  300/  6/  8 1018.3F   3/270/14
SAN NICOLAS IS.               62                N/A     3/280/13
SO. S. ROSA ISLA           60 61  300/ 12/ 14 1018.4F   3/12
W. S. BARBARA CH           60 60  300/ 12/ 14 1018.3F   3/290/13
S. MONICA BASIN            63 63  270/  4/  6 1018.7F   3/260/14
S PEDRO CHANNEL               64                N/A     2/270/13
DANA POINT                    63                N/A     2/270/13
CMP PENDLETON NS              62                N/A     2/240/13
OCEANSIDE OFFSHR              63                N/A     2/240/13
TORREY PINES OTR              63                N/A     2/260/13
LA JOLLA 1                 62 62  360/  4/  6 1018.0F
SAN DIEGO BAY                 63              1018.3F
POINT LOMA SOUTH              63                N/A     2/260/14

$$



USA.gov is the U.S. government's official web portal to all federal, state and local government web resources and services.